Tracking 19193 objects as of 23-Jun-2018
HD Live streaming from Space Station
objects crossing your sky now

FENGYUN 1C DEB

Track FENGYUN 1C DEB now!
10-day predictions


NORAD ID: 31088
Int'l Code: 1999-025BGJ
Perigee: 832.7 km
Apogee: 884.5 km
Inclination: 99.4 °
Period: 102.0 minutes
Semi major axis: 7229 km
RCS: 0.009 m2 (small)
Launch date: May 10, 1999
Source: People's Republic of China (PRC)
Launch site: Taiyaun Space Center, China (TSC)

Note: This is SATELLITE DEBRIS
aabbcc
Your satellite tracking list
Your tracking list is empty




NASA's NSSDC Master Catalog

Two Line Element Set (TLE):
1 31088U 99025BGJ 18173.44616991 +.00000647 +00000-0 +37531-3 0  9994
2 31088 099.4397 035.8988 0035822 152.8670 330.9726 14.12319532578914
Source of the keplerian elements: AFSPC